STARLINK-32873, 62857

Orbit data source: Space-Track

STARLINK-32873, 62857 is a payload satellite owned by SpaceX/Seattle (US) in LEO that was launched on Sat, 01 Feb 2025 UTC via an FALCON 9 launch vehicle from the Air Force Western Test Range (AFWTR). Payload-class satellites include a variety of spacecraft equipped with specific instruments for various scientific and technological missions. These include communications satellites like Starlink; space stations such as the ISS; scientific satellites like the Hubble; Earth observation satellites from companies like Planet Labs, Umbra, and HawkEye 360; GPS; miniature CubeSats for education and research; and military/defense satellites.

Loading next visibility...
Identifier
62857, 2025-022D
Orbit
LEO
Country
Flag of USUS
Related business
Manufacturer
SpaceX/Seattle
Mission
Operational Commercial Communications
Bus & Motor
STARLINK V2M, Unknown motor
Mass
730 kg wet, ~700 kg dry
Launch date (UTC)
2025-02-01 (1 year ago)
Launch vehicle
FALCON 9
Launch site
Air Force Western Test Range (AFWTR)
Object type
Payload
Rocket body
Debris
Shape & HBR
Box + 2 Pan, 17.7 m
Radar Cross Section
33.884 m², Large (>1 m²)

Expand to show TLE details & history
Last TLE update: 18 hours ago

TLE from 18 hours ago
0 STARLINK-32873
1 62857U 25022D   26036.40598807  .00034516  00000-0  11714-2 0  9992
2 62857  53.1615 279.8351 0001311  78.6753 281.4395 15.30220330 56954
Epoch: 2026-02-05T09:44Z
TLE epoch observation values (Epoch: 2026-02-05T09:44:37.369Z)
Latitude
-0.00002°
Longitude
-1.87929°
Altitude
475.876 km
Speed
7.629 km/s
True Right ascension
18h 39m 20s
True Declination
0° 00' 00"
Sunlit
Object was in daylight at epoch
Visualization orbit readout
Latitude
Unknown
Longitude
Unknown
Altitude
Unknown
Speed
Unknown
Apparent Right ascension
Unknown
Apparent Declination
Unknown
Sunlit
N/A
Visualization observer readout
Local Sidereal Time
06:07:34
Azimuth
Unknown
Elevation
Unknown
Doppler factor
Unknown
Orbital elements
Apogee altitude
476.309 km
Perigee altitude
474.512 km
Semi-major axis
6,853.548 km
Eccentricity
0.00013
Inclination
53.1615°
RAAN
279.8351°
Arg. of periapsis
78.6753°
True anomaly
281.42478°
Mean anomaly
281.4395°
Eccentric anomaly
281.43214°
Mean motion
3.82534 °/min
Orbital period
94.11 mins
BSTAR
0.0011714
Loading maneuver chart data...
Computing Atmospheric mass density...
Loading historical data...
Loading historical data...
Loading historical data...
Loading historical data...
Loading historical data...
Loading historical data...
Loading historical data...

Documentation

Showing up to 5 results
|